Temperature
24 23 23 23 20 21 24 25 26 26 26 27 27 26 24 23 23 22 21 21 21 21 20 20 20 20 20 20 20 20 20 19 19 19 19 20 20 20 20 20 20 20 20 20 20 20 19 19 19
24 24 24 23 20 22 24 26 26 27 27 27 26 25 24 22 22 21 20 20 21 21 20 20 20 20 20 20 20 20 19 19 19 19 19 19 20 20 20 20 20 20 20 20 19 19 19 19 19
24 24 24 21 22 23 25 26 27 28 29 28 26 25 24 22 22 21 21 21 21 21 21 20 20 20 20 20 20 20 19 19 19 19 19 19 19 19 19 19 19 19 19 19 19 19 19 19 19
25 24 24 22 25 25 26 26 27 28 28 27 25 24 23 22 22 22 21 21 21 21 21 21 20 20 20 20 20 19 19 19 19 19 19 19 19 19 19 19 19 19 19 19 19 19 19 19 19
25 25 23 23 26 27 27 28 28 27 27 25 25 23 22 22 22 22 21 21 21 21 21 21 21 20 20 20 20 19 19 19 19 19 19 19 19 19 18 18 19 19 19 19 19 19 19 19 19
26 23 22 23 25 27 28 29 28 27 26 25 24 23 22 22 22 21 21 21 21 21 21 21 21 21 20 20 20 19 19 19 19 19 19 19 19 19 18 18 18 18 19 19 19 19 19 19 19
25 22 23 24 24 26 28 29 28 27 26 26 25 23 22 22 22 22 21 21 21 21 21 21 21 21 20 20 19 19 19 19 19 19 19 19 19 19 18 18 18 18 18 19 19 19 19 19 19
26 21 23 23 24 25 27 28 28 27 26 26 25 23 22 22 22 22 21 21 21 21 21 21 21 21 20 20 19 19 19 19 19 19 19 19 19 19 19 19 19 18 19 19 19 19 19 19 19
26 21 22 23 23 24 26 27 27 27 27 26 26 25 24 23 22 22 21 21 21 21 21 21 21 21 20 20 20 19 19 19 19 19 19 19 19 19 19 19 19 19 19 19 19 19 19 19 19
25 21 23 23 23 24 25 26 27 26 25 25 25 24 24 23 23 22 22 21 21 21 21 21 21 21 20 20 20 19 19 19 19 19 19 19 19 19 19 19 19 19 19 19 19 19 19 19 19
25 23 23 24 25 26 26 26 26 25 24 24 24 24 24 23 23 23 22 22 22 22 22 21 21 21 21 20 20 20 19 19 19 19 19 19 19 19 19 19 19 19 19 19 19 19 19 19 19
26 24 25 25 26 27 26 26 25 25 25 25 25 25 24 23 23 23 23 23 23 22 22 22 21 21 21 21 20 20 20 19 19 19 19 19 19 19 19 19 18 19 19 19 19 19 19 19 18
25 25 26 26 26 27 27 25 25 24 24 25 25 24 24 23 23 23 23 23 23 23 22 22 22 22 21 21 21 20 20 20 19 19 19 19 19 19 19 18 18 18 19 19 19 19 18 19 18
26 26 26 25 26 25 24 23 23 23 24 24 24 23 23 23 22 22 22 22 22 22 22 22 22 22 22 21 21 21 20 20 19 19 19 19 19 18 18 18 18 18 19 19 19 19 19 19 19
27 26 24 23 24 23 23 21 21 22 23 23 22 22 22 21 21 21 21 21 21 21 21 21 22 22 22 21 21 21 21 20 20 19 19 19 18 18 18 18 18 18 19 19 19 19 19 19 18
24 23 22 22 22 22 22 21 21 22 22 21 21 21 20 20 20 20 20 20 20 21 21 21 21 21 21 21 21 21 21 21 20 20 19 19 19 18 18 18 18 18 18 19 19 18 19 18 19
21 21 22 22 21 21 21 20 20 21 21 20 19 19 19 19 19 19 19 19 20 20 20 20 20 20 21 21 21 21 21 21 21 20 20 19 19 19 18 19 19 19 19 19 18 18 18 18 18
21 21 21 21 20 20 19 19 19 19 19 18 18 18 18 18 18 18 19 19 19 19 20 20 20 20 20 20 20 20 20 20 20 20 20 19 19 19 19 19 19 19 19 19 18 18 18 18 18
20 20 19 20 20 20 19 18 17 17 17 16 16 16 16 16 17 17 18 18 18 19 19 19 20 20 20 20 20 20 20 20 20 20 20 20 19 19 19 19 19 19 18 19 19 18 18 18 18
19 18 18 18 19 20 17 16 16 15 15 14 14 14 14 15 16 17 17 17 17 17 18 18 18 19 19 20 20 20 20 20 20 20 20 20 19 19 19 19 19 19 18 18 18 18 18 18 18
18 18 18 18 18 18 17 15 14 15 14 13 13 13 13 14 14 15 16 16 17 17 17 17 17 18 18 19 19 20 20 19 19 19 19 19 19 19 19 18 18 18 18 18 18 18 18 18 17
17 18 18 18 17 15 17 14 12 13 13 13 12 12 12 13 14 14 15 15 16 16 16 17 17 17 18 18 19 19 20 19 19 19 19 19 19 18 18 18 18 18 18 17 17 17 17 17 17
17 17 17 17 16 15 15 13 12 12 11 12 12 12 12 12 13 13 14 14 15 15 15 16 16 16 17 17 18 18 19 19 19 19 19 18 18 18 17 17 17 17 17 17 17 17 17 17 17
16 16 16 14 13 13 13 12 11 11 11 11 11 11 12 12 12 13 13 14 14 14 15 15 15 15 16 16 17 17 18 18 18 18 18 18 17 17 17 17 16 16 16 16 16 16 16 16 16
14 13 13 13 12 13 13 12 11 12 12 11 11 11 11 11 12 12 13 13 13 13 14 14 14 14 15 15 16 16 16 17 17 17 17 17 16 16 16 16 16 16 15 16 16 16 16 16 16
14 13 12 13 13 13 13 11 11 12 12 11 11 11 11 11 12 12 12 12 13 13 13 13 13 13 14 14 14 15 15 15 16 15 15 15 15 15 15 15 15 15 15 15 15 15 15 15 15
14 12 13 12 13 12 12 12 12 12 12 11 11 10 11 11 11 12 12 12 13 13 13 13 13 13 13 13 13 14 14 14 14 14 14 14 14 14 14 14 14 14 14 14 14 14 14 14 14
13 13 11 11 11 11 12 11 10 10 10 10 10 10 10 11 11 11 12 12 12 12 12 12 12 12 13 13 13 13 13 13 13 13 14 14 14 14 14 14 14 13 13 13 13 13 14 13 14
12 12 11 10 10 10 10 10 11 10 10 10 10 10 11 11 11 12 12 12 12 12 12 12 12 12 12 12 12 13 13 13 13 13 13 13 13 13 13 13 13 13 13 13 13 13 13 13 14
13 12 11 10 10 10 10 10 11 10 10 10 10 11 12 12 12 12 12 12 12 12 12 12 12 12 12 13 13 13 13 13 13 13 13 13 14 14 14 14 14 14 14 13 13 13 13 13 13
Wind_Speed
7 2 4 3 6 6 4 2 3 5 6 5 8 11 9 5 3 5 6 14 17 16 17 18 18 18 17 17 16 15 14 13 13 12 12 12 11 11 10 10 9 9 9 9 8 7 7 8 7
4 1 3 4 6 5 1 1 3 1 6 8 8 8 8 5 5 9 8 16 19 17 17 17 18 17 17 16 15 15 14 14 13 12 11 11 10 10 10 9 9 9 8 8 7 6 6 7 6
3 1 3 4 3 5 4 4 5 2 2 6 6 6 6 6 7 7 12 19 18 16 17 18 19 17 16 15 15 15 15 14 13 13 11 10 10 9 9 8 8 8 8 7 6 5 5 6 6
1 3 4 4 3 5 6 6 5 1 5 7 7 6 5 3 6 11 20 19 18 14 16 18 18 17 16 15 14 14 14 13 13 13 12 11 10 10 9 8 8 8 7 7 6 5 5 5 5
3 4 5 3 2 1 1 2 2 7 5 8 9 6 4 4 14 22 20 19 17 14 16 18 18 17 15 14 14 14 13 13 13 13 12 11 11 10 10 9 8 8 7 6 5 5 5 5 5
5 5 5 3 3 3 4 4 8 11 10 9 9 7 3 5 15 20 18 16 17 16 16 18 19 17 16 14 14 14 13 13 13 13 12 11 11 10 10 10 8 7 6 5 4 4 4 5 5
4 4 3 3 4 5 5 5 7 8 8 6 7 7 5 5 12 17 17 16 15 14 14 14 17 17 16 15 14 14 14 14 14 13 12 12 11 11 11 11 10 8 6 5 4 3 4 4 4
5 4 5 5 5 5 5 7 8 9 7 6 6 8 7 8 11 14 16 15 14 13 12 11 14 15 15 15 15 15 15 15 15 14 13 13 12 12 12 12 11 9 7 6 5 4 3 3 3
5 5 2 2 4 6 6 8 8 8 9 6 4 6 9 13 13 13 12 10 12 13 11 11 11 14 15 15 15 16 16 16 16 15 15 14 12 12 13 13 13 11 9 8 7 6 5 4 4
5 4 2 2 1 3 6 6 5 6 9 6 6 6 11 14 14 15 15 15 16 15 14 13 13 12 14 14 14 14 14 15 16 15 15 14 13 12 12 13 14 13 11 9 9 8 7 6 6
4 5 3 1 1 1 2 4 3 6 5 2 8 11 11 12 12 14 16 17 18 18 17 15 15 12 12 9 11 11 12 13 14 16 16 14 13 11 11 11 12 12 12 9 8 8 8 7 6
4 4 5 5 4 1 1 2 4 4 1 1 7 11 10 10 9 10 12 14 14 16 18 17 17 14 13 11 9 10 9 9 10 15 16 13 8 7 8 8 10 10 10 9 8 7 8 9 9
3 2 2 4 5 2 2 4 5 5 6 7 9 8 6 4 3 4 2 4 9 14 17 18 18 17 14 11 9 9 9 10 13 14 16 15 8 5 6 7 9 10 11 9 7 7 7 7 8
3 3 2 3 2 4 5 6 6 7 9 10 12 10 9 8 8 9 10 8 4 3 7 12 17 17 15 13 11 10 10 12 13 13 16 17 13 8 6 6 7 9 11 11 8 7 5 5 4
1 2 4 6 4 4 7 8 6 6 8 11 11 11 12 12 12 11 9 9 9 7 6 3 8 12 15 15 14 10 10 12 11 13 17 18 15 12 9 8 8 10 13 11 6 6 5 4 4
5 5 4 5 5 4 6 2 4 6 7 9 9 10 12 11 11 10 11 11 11 10 9 8 4 4 10 11 11 9 10 10 10 13 15 17 18 16 10 9 10 13 12 7 5 4 4 4 4
7 4 4 5 6 4 4 2 3 5 6 9 10 10 9 10 12 11 11 11 11 11 10 10 9 7 3 7 9 8 8 10 10 12 12 16 18 17 11 9 9 12 7 6 6 4 4 4 3
3 3 4 5 6 5 4 3 5 9 12 13 13 12 11 12 12 11 13 12 11 10 10 11 10 9 7 3 4 5 7 8 8 9 11 14 14 15 11 6 8 8 6 6 5 5 3 4 4
4 4 4 3 6 5 6 8 10 14 18 18 17 16 14 12 12 12 14 14 14 13 12 11 11 10 7 3 2 4 7 8 8 8 10 11 11 11 9 8 8 7 7 7 7 5 5 3 3
7 6 5 5 6 4 8 13 13 18 20 18 18 18 16 15 16 15 14 15 14 13 13 11 11 10 9 5 4 4 5 5 7 6 6 8 8 8 8 8 7 7 6 6 5 5 4 3 3
6 3 3 5 7 5 6 7 12 11 18 20 20 18 17 17 15 15 15 14 13 14 13 12 11 10 10 10 5 3 2 2 2 4 5 4 4 5 5 5 5 5 5 6 6 6 6 4 2
4 5 6 5 3 4 3 3 8 12 17 21 20 18 17 15 14 13 13 14 14 13 12 11 11 11 10 10 6 3 3 5 6 5 4 3 3 3 4 3 4 4 3 4 5 5 4 5 3
6 8 6 3 2 2 5 5 5 9 15 20 18 17 16 15 14 13 12 12 12 12 11 10 10 10 10 10 8 5 3 3 3 3 6 6 5 5 5 3 3 3 4 4 5 4 5 4 4
7 5 6 6 5 4 6 4 5 8 13 18 18 17 15 14 13 12 11 10 10 11 10 10 9 9 10 9 8 6 4 2 1 1 4 4 3 4 6 6 5 4 3 3 3 4 5 4 3
9 7 6 8 6 2 4 6 3 7 12 14 17 16 15 12 12 12 12 12 11 10 10 9 9 8 9 9 9 8 7 6 5 3 3 3 2 1 3 4 4 4 3 2 2 3 4 5 4
6 6 5 2 1 2 5 4 1 7 12 13 13 12 13 13 12 11 11 10 9 9 8 8 8 8 9 9 9 9 8 7 6 7 6 5 3 3 3 3 3 4 4 3 3 3 4 4 4
5 4 1 5 1 3 3 3 4 14 19 18 18 16 15 14 13 13 12 10 9 8 7 7 7 8 8 8 8 9 9 8 8 7 7 5 4 4 5 5 4 3 3 3 4 3 3 2 2
5 2 6 5 3 3 3 4 9 17 19 18 16 16 14 14 13 13 12 11 9 9 7 6 7 7 7 8 7 7 7 7 7 6 6 5 5 4 4 4 3 3 3 3 3 2 2 2 2
8 6 5 5 5 4 3 3 6 12 14 14 14 13 13 12 12 11 10 10 10 10 9 7 7 7 7 7 7 7 7 6 6 6 5 4 3 2 2 2 2 2 1 1 1 0 1 2 3
6 5 4 5 4 3 2 3 7 9 11 11 11 11 10 9 8 8 7 8 9 10 10 9 8 7 7 6 6 6 6 6 6 5 5 4 3 2 1 1 1 1 1 1 2 3 3 4 5
Wind_Direction
311 271 138 97 51 55 77 69 79 47 50 63 85 94 95 87 108 135 137 144 141 149 156 154 151 147 144 141 139 136 133 128 123 118 114 110 107 105 102 99 97 92 88 85 84 92 105 115 116
328 320 115 64 78 80 34 154 98 152 147 124 92 93 89 74 91 111 125 144 143 149 153 156 155 151 148 145 143 142 138 134 131 128 124 123 119 113 108 106 104 101 97 93 91 99 112 121 126
294 264 94 69 109 148 181 211 190 240 140 118 88 60 77 104 116 126 142 142 142 148 153 159 157 155 152 149 146 144 141 140 139 135 135 136 131 123 117 115 114 111 106 101 99 105 120 127 131
108 58 64 72 131 195 186 212 216 130 70 71 89 59 55 119 142 134 140 142 144 148 154 161 160 159 157 155 152 148 146 147 144 143 143 141 136 131 126 124 121 119 114 108 105 112 131 139 143
93 73 47 39 104 103 217 209 130 85 77 85 91 84 46 41 115 132 142 145 146 150 157 164 165 165 164 162 160 157 156 155 152 149 147 143 140 141 137 132 128 126 123 118 113 116 133 147 155
46 55 57 6 5 48 32 67 88 93 109 112 105 105 93 120 127 144 148 150 150 155 161 168 170 171 172 172 170 168 166 164 162 160 157 154 152 153 152 146 142 138 133 130 126 125 135 150 159
76 54 24 3 357 37 42 63 79 97 108 125 122 101 121 163 147 151 152 152 153 157 162 169 173 176 178 179 180 179 176 174 172 171 171 167 165 164 162 159 157 158 158 158 158 156 154 157 166
110 78 29 11 3 352 358 57 49 72 87 124 116 123 153 185 158 148 151 153 155 160 166 170 174 178 181 185 188 188 185 183 182 181 180 177 176 175 171 170 171 176 182 184 189 202 202 193 194
86 75 70 2 344 320 349 62 55 54 73 54 61 133 158 157 149 142 148 151 161 168 174 176 179 182 184 186 192 192 190 190 188 187 187 184 183 181 178 180 184 190 196 202 208 219 228 233 240
90 106 172 184 271 305 348 57 76 60 62 57 68 98 137 151 154 157 162 168 174 180 184 184 186 188 186 190 191 190 191 191 189 189 190 187 186 188 188 191 195 200 206 212 222 233 240 246 259
111 140 174 193 242 289 14 39 57 104 70 135 153 156 157 164 167 172 177 179 184 185 187 189 191 191 188 190 185 187 189 188 190 190 191 189 190 198 202 200 204 209 214 218 229 245 253 257 261
90 136 163 200 227 219 133 96 59 76 148 210 167 163 159 169 181 188 190 190 188 187 192 191 192 193 192 190 187 186 187 190 193 196 196 193 194 202 203 197 201 208 215 215 222 235 251 258 259
65 121 210 225 228 231 74 67 80 25 3 45 80 102 113 118 92 41 2 211 196 194 195 193 193 194 192 188 187 187 191 194 197 198 201 200 198 198 194 195 202 213 220 220 217 221 236 247 249
186 198 263 320 311 13 68 41 50 5 7 42 62 68 73 74 65 48 35 32 6 246 214 199 194 193 188 186 188 189 192 195 197 200 202 202 202 199 194 197 203 216 222 224 220 218 220 224 215
311 335 2 10 31 24 79 42 14 346 26 42 46 59 59 56 53 47 32 30 21 8 354 295 211 199 191 190 190 189 192 193 198 203 203 201 202 203 200 202 207 216 222 224 220 220 202 183 175
25 31 13 358 28 14 79 81 326 349 43 45 46 57 61 54 53 47 38 33 25 17 10 6 335 238 209 202 196 192 193 193 199 203 204 205 207 206 202 204 208 210 211 208 189 176 151 160 157
27 19 355 349 18 10 77 167 306 355 43 51 49 46 50 45 41 39 38 34 25 18 12 12 12 2 293 229 212 206 198 197 201 201 203 208 210 210 202 201 199 196 190 186 183 167 152 156 162
352 3 1 4 5 22 54 38 17 31 48 44 38 33 34 36 27 25 27 27 24 18 13 10 5 2 352 313 245 229 216 209 204 201 204 208 210 210 197 191 183 176 172 174 173 160 148 151 159
61 70 34 16 9 25 63 57 41 38 40 34 27 25 23 25 17 19 20 18 17 14 11 7 360 352 352 347 282 233 221 215 213 209 202 206 206 201 186 182 170 163 168 172 163 147 146 148 141
43 52 16 337 347 22 79 60 48 46 39 31 24 18 13 12 12 11 13 13 11 6 2 360 353 345 342 329 280 238 223 218 212 216 207 201 199 192 185 176 169 160 155 159 162 147 147 156 148
11 55 353 322 346 12 102 59 26 21 25 22 18 12 9 8 6 3 3 3 2 359 355 352 346 344 339 331 309 277 233 245 220 219 218 208 189 183 165 161 158 155 157 171 179 168 155 166 189
315 315 320 313 3 322 51 105 19 355 8 8 4 360 355 354 354 356 355 352 350 346 345 345 344 344 343 338 330 296 229 219 215 202 190 161 139 130 125 132 159 160 167 184 193 177 166 157 175
293 294 294 279 171 26 16 103 7 353 0 351 348 345 341 344 343 342 344 341 338 337 339 341 342 347 348 348 342 325 280 244 221 179 162 157 151 147 133 142 175 183 181 190 197 183 177 168 168
322 350 32 49 74 53 352 88 30 5 344 336 337 335 333 335 332 331 334 335 332 333 338 344 347 349 353 358 2 7 9 13 75 141 163 161 156 159 164 172 178 186 185 184 198 192 175 168 160
15 45 37 25 29 43 42 74 55 348 343 334 330 327 327 329 327 331 334 334 332 337 342 347 351 355 358 8 19 24 34 45 59 75 104 114 120 131 166 177 173 164 165 161 168 165 156 158 169
1 74 107 120 299 348 41 59 263 351 343 340 338 335 337 336 332 336 336 334 334 337 344 352 0 5 8 18 25 29 37 47 54 61 73 78 84 85 85 106 126 135 135 136 131 121 128 146 177
19 13 148 145 56 71 48 21 313 345 348 349 351 352 351 345 346 349 348 348 345 349 355 359 9 14 16 21 30 36 39 47 53 57 63 66 69 76 72 70 72 89 100 103 103 103 106 127 193
41 18 50 66 75 61 31 20 343 332 335 340 346 349 350 0 1 358 357 359 357 359 3 7 14 22 24 28 34 40 38 41 42 48 53 55 50 51 59 63 60 51 51 59 69 86 102 152 201
9 22 52 75 86 101 48 350 320 308 316 324 333 339 344 352 354 355 1 3 3 5 7 9 13 22 23 24 27 30 29 30 35 37 33 33 32 31 37 41 44 44 43 66 144 156 168 204 222
39 24 71 99 65 70 99 305 288 297 304 309 318 325 329 333 336 340 347 356 4 10 13 16 21 23 17 16 20 21 20 22 24 21 15 12 6 348 320 301 289 289 302 260 210 205 205 214 227
Height
1516 1515 1514 1515 1518 1528 1528 1520 1512 1511 1511 1510 1509 1511 1515 1520 1523 1530 1528 1529 1533 1535 1538 1540 1542 1543 1544 1546 1547 1547 1548 1549 1550 1550 1551 1552 1552 1553 1553 1553 1553 1552 1553 1553 1553 1554 1554 1555 1556
1516 1515 1516 1516 1527 1540 1531 1516 1512 1509 1510 1511 1512 1514 1516 1521 1522 1523 1526 1530 1533 1536 1538 1540 1542 1544 1545 1546 1547 1548 1549 1549 1550 1551 1552 1552 1553 1554 1554 1554 1554 1554 1553 1553 1554 1554 1555 1556 1557
1516 1515 1516 1518 1528 1534 1527 1514 1510 1507 1508 1509 1514 1516 1519 1523 1523 1524 1527 1531 1534 1536 1539 1541 1543 1544 1546 1547 1548 1549 1549 1550 1550 1551 1552 1553 1554 1554 1555 1555 1555 1555 1554 1554 1555 1555 1556 1557 1557
1515 1516 1517 1523 1525 1519 1515 1511 1507 1508 1510 1512 1514 1520 1523 1525 1524 1525 1528 1532 1535 1537 1539 1541 1543 1545 1546 1547 1548 1549 1550 1550 1551 1552 1553 1554 1554 1555 1555 1555 1555 1555 1555 1555 1555 1556 1556 1557 1558
1515 1515 1521 1527 1521 1514 1510 1508 1508 1509 1512 1515 1516 1522 1525 1526 1526 1527 1530 1533 1535 1537 1540 1542 1543 1545 1546 1548 1549 1549 1550 1551 1552 1552 1553 1554 1555 1555 1555 1555 1555 1555 1556 1556 1556 1556 1556 1557 1558
1516 1516 1530 1535 1524 1514 1510 1510 1510 1511 1514 1516 1518 1523 1527 1528 1527 1529 1532 1534 1537 1538 1540 1542 1544 1545 1546 1547 1548 1549 1550 1551 1552 1553 1553 1554 1555 1555 1555 1556 1555 1555 1556 1556 1556 1557 1557 1557 1558
1519 1523 1530 1531 1527 1519 1513 1511 1511 1513 1515 1517 1518 1522 1528 1530 1529 1530 1533 1535 1537 1539 1540 1542 1543 1545 1546 1547 1548 1549 1550 1551 1551 1553 1553 1554 1554 1555 1555 1556 1556 1556 1556 1556 1556 1557 1557 1558 1558
1520 1525 1531 1532 1530 1524 1515 1513 1514 1514 1517 1519 1519 1522 1527 1529 1530 1531 1533 1535 1537 1539 1540 1541 1543 1544 1545 1546 1547 1548 1549 1550 1551 1552 1553 1553 1554 1555 1555 1555 1556 1556 1556 1556 1556 1557 1558 1558 1559
1522 1532 1539 1534 1532 1526 1517 1515 1518 1518 1518 1519 1520 1521 1523 1527 1530 1532 1533 1535 1537 1538 1540 1541 1542 1543 1544 1545 1546 1547 1547 1548 1549 1550 1552 1552 1553 1554 1555 1555 1555 1556 1556 1556 1556 1557 1558 1558 1559
1522 1535 1533 1529 1526 1524 1520 1518 1519 1521 1521 1522 1523 1524 1525 1527 1529 1530 1531 1532 1534 1536 1537 1539 1540 1541 1542 1543 1544 1545 1546 1547 1548 1549 1550 1551 1552 1553 1554 1555 1555 1555 1556 1556 1557 1557 1558 1559 1560
1521 1528 1527 1525 1524 1523 1522 1521 1521 1522 1524 1524 1524 1524 1526 1527 1528 1529 1530 1530 1531 1533 1534 1536 1537 1539 1540 1541 1542 1543 1544 1545 1546 1547 1548 1550 1551 1552 1553 1554 1554 1555 1556 1556 1557 1558 1559 1560 1561
1522 1523 1524 1524 1522 1522 1522 1522 1523 1523 1525 1524 1523 1524 1526 1527 1528 1529 1529 1529 1530 1531 1532 1533 1535 1536 1538 1539 1540 1541 1542 1543 1544 1545 1546 1548 1549 1550 1552 1553 1553 1554 1555 1556 1557 1558 1559 1560 1561
1522 1523 1523 1523 1522 1522 1521 1523 1525 1527 1527 1526 1525 1526 1527 1529 1530 1531 1531 1531 1531 1530 1530 1531 1532 1533 1535 1536 1537 1538 1539 1541 1542 1543 1544 1546 1547 1549 1550 1552 1553 1554 1555 1556 1557 1558 1558 1559 1560
1521 1521 1522 1522 1522 1523 1524 1527 1528 1530 1530 1528 1527 1528 1528 1529 1530 1530 1529 1529 1531 1531 1530 1530 1530 1531 1532 1533 1535 1536 1537 1538 1539 1541 1542 1544 1546 1547 1549 1550 1552 1554 1555 1556 1557 1557 1558 1558 1559
1520 1522 1523 1524 1523 1525 1525 1533 1533 1533 1531 1531 1531 1530 1530 1530 1530 1529 1529 1529 1529 1530 1530 1530 1530 1530 1530 1531 1532 1533 1534 1535 1536 1538 1540 1541 1543 1545 1547 1548 1550 1552 1554 1555 1555 1556 1557 1557 1558
1523 1529 1535 1530 1527 1528 1531 1541 1535 1533 1533 1534 1534 1533 1532 1531 1531 1530 1530 1529 1528 1528 1528 1528 1529 1529 1529 1529 1530 1531 1532 1533 1534 1535 1536 1538 1540 1542 1544 1545 1547 1550 1551 1553 1554 1555 1556 1557 1558
1537 1544 1541 1536 1533 1532 1534 1540 1535 1535 1536 1538 1538 1537 1536 1534 1532 1532 1530 1529 1528 1527 1527 1526 1526 1526 1527 1527 1528 1529 1529 1530 1531 1532 1533 1534 1536 1538 1540 1542 1544 1547 1548 1550 1552 1553 1554 1555 1556
1548 1546 1545 1544 1539 1537 1539 1542 1540 1541 1542 1543 1542 1540 1539 1536 1535 1533 1531 1530 1528 1526 1525 1524 1523 1523 1523 1524 1525 1526 1527 1527 1528 1528 1529 1531 1533 1535 1536 1538 1541 1543 1545 1547 1549 1551 1552 1553 1554
1544 1547 1550 1546 1542 1541 1545 1548 1548 1549 1548 1549 1547 1545 1543 1540 1538 1535 1532 1529 1527 1525 1523 1521 1521 1520 1520 1520 1520 1521 1522 1523 1524 1525 1526 1527 1529 1531 1533 1534 1536 1539 1541 1543 1545 1547 1549 1550 1551
1547 1551 1554 1549 1544 1544 1551 1556 1555 1556 1557 1556 1553 1550 1547 1543 1538 1535 1532 1529 1527 1524 1522 1520 1518 1517 1516 1516 1516 1517 1518 1519 1520 1521 1522 1523 1525 1527 1529 1530 1532 1534 1537 1539 1541 1543 1545 1546 1548
1550 1553 1553 1552 1548 1545 1550 1562 1563 1561 1560 1558 1555 1553 1549 1545 1541 1537 1533 1530 1526 1523 1520 1518 1516 1514 1512 1512 1512 1512 1513 1514 1515 1516 1516 1518 1521 1522 1524 1527 1529 1530 1533 1535 1537 1538 1540 1542 1544
1556 1548 1547 1548 1555 1561 1556 1573 1573 1567 1562 1560 1558 1555 1551 1546 1543 1539 1534 1530 1527 1523 1520 1517 1514 1511 1509 1507 1507 1507 1508 1509 1509 1510 1512 1513 1515 1516 1519 1521 1524 1526 1528 1530 1532 1534 1535 1537 1539
1552 1546 1546 1547 1553 1562 1562 1573 1581 1572 1570 1566 1562 1558 1553 1548 1544 1539 1535 1531 1527 1524 1520 1516 1513 1510 1507 1504 1503 1502 1502 1503 1504 1506 1507 1508 1508 1510 1512 1514 1517 1520 1522 1525 1527 1529 1531 1532 1534
1549 1547 1548 1554 1562 1576 1573 1578 1585 1582 1578 1570 1563 1558 1553 1548 1543 1539 1535 1531 1527 1523 1519 1515 1511 1508 1505 1502 1500 1499 1498 1498 1499 1500 1502 1503 1504 1506 1508 1510 1512 1514 1517 1519 1521 1523 1526 1528 1530
1555 1563 1573 1576 1582 1584 1577 1581 1589 1582 1578 1573 1565 1559 1553 1548 1543 1538 1533 1529 1525 1522 1518 1514 1510 1507 1504 1501 1499 1497 1496 1496 1496 1497 1499 1500 1501 1502 1504 1506 1507 1508 1511 1514 1516 1519 1521 1523 1525
1563 1568 1583 1588 1588 1585 1581 1586 1587 1580 1576 1571 1565 1559 1553 1547 1542 1537 1532 1529 1525 1521 1517 1514 1510 1507 1504 1501 1499 1497 1496 1495 1496 1496 1497 1498 1499 1499 1500 1503 1503 1504 1507 1509 1512 1515 1517 1519 1522
1568 1572 1571 1581 1581 1588 1588 1588 1582 1578 1574 1569 1564 1557 1552 1546 1541 1536 1532 1528 1525 1521 1517 1514 1511 1508 1505 1503 1500 1499 1497 1497 1497 1497 1497 1497 1498 1498 1499 1500 1501 1501 1502 1505 1508 1511 1513 1516 1519
1570 1571 1578 1584 1591 1598 1594 1593 1594 1584 1578 1572 1566 1560 1554 1548 1543 1538 1533 1530 1526 1522 1519 1516 1513 1510 1508 1506 1503 1502 1501 1500 1499 1499 1499 1499 1499 1499 1499 1500 1500 1500 1501 1503 1505 1508 1511 1514 1517
1576 1577 1581 1589 1593 1601 1602 1602 1592 1588 1581 1576 1569 1563 1557 1552 1546 1541 1537 1534 1530 1526 1522 1519 1516 1513 1511 1509 1507 1506 1505 1504 1503 1503 1502 1502 1501 1501 1501 1501 1501 1502 1502 1503 1505 1508 1510 1512 1515
1578 1579 1583 1593 1600 1600 1602 1605 1588 1585 1581 1576 1571 1565 1560 1555 1551 1546 1542 1538 1534 1530 1526 1522 1519 1516 1515 1513 1511 1510 1509 1508 1507 1506 1506 1505 1505 1504 1504 1504 1504 1504 1505 1505 1507 1509 1510 1512 1514